Location: Alladorf
(49.9620°N, 11.3790°E)
Time: 21:00:47
(UTC+00:00)

Cosmos 1812 - Pass Details

Date: 29 November 2020
Orbit: 517 x 520 km, 82.5° (Epoch: 25 January)

Event Time Altitude Azimuth Distance (km) Brightness Sun altitude
Exits shadow 05:42:46 - 330° (NNW) 1,872 5.1 -10.2°
Reaches altitude 10° 05:43:05 10° 327° (NNW) 1,761 4.9 -10.2°
Maximum altitude 05:46:19 26° 270° (W) 1,055 3.7 -9.7°
Drops below altitude 10° 05:49:31 10° 213° (SSW) 1,749 5.3 -9.2°
Sets 05:51:53 0° 201° (SSW) 2,631 6.3 -8.9°
